This is the latest recevied weather packets stored in our database for station/object DH0GMA. If no packets are shown the sender has not sent any weather packets the latest 10 day(s).
| Time | Temp. | Humidity | Pressure | Rain* | Wind** | Luminosity | Snow |
|---|---|---|---|---|---|---|---|
| 1777823103 | 26.67° C | 29% | 1010.9 hPa | 0 mm | - | - | - |
| 1777822503 | 26.67° C | 28% | 1011 hPa | 0 mm | - | - | - |
| 1777821903 | 26.67° C | 32% | 1011.2 hPa | 0 mm | - | - | - |
| 1777821305 | 26.11° C | 33% | 1011.2 hPa | 0 mm | - | - | - |
| 1777820705 | 26.67° C | 30% | 1011.2 hPa | 0 mm | - | - | - |
| 1777820105 | 26.67° C | 33% | 1011.3 hPa | 0 mm | - | - | - |
| 1777819504 | 26.11° C | 34% | 1011.4 hPa | 0 mm | - | - | - |
| 1777818904 | 25.56° C | 37% | 1011.4 hPa | 0 mm | - | - | - |
| 1777818304 | 25.56° C | 38% | 1011.5 hPa | 0 mm | - | - | - |
| 1777817704 | 25.56° C | 37% | 1011.5 hPa | 0 mm | - | - | - |
| 1777817104 | 25.56° C | 38% | 1011.8 hPa | 0 mm | - | - | - |
| 1777816504 | 25° C | 40% | 1011.8 hPa | 0 mm | - | - | - |
| 1777815904 | 24.44° C | 38% | 1011.9 hPa | 0 mm | - | - | - |
| 1777815304 | 23.89° C | 39% | 1012 hPa | 0 mm | - | - | - |
| 1777814704 | 23.89° C | 37% | 1012.2 hPa | 0 mm | - | - | - |
| 1777814103 | 23.89° C | 38% | 1012.2 hPa | 0 mm | - | - | - |
| 1777813503 | 23.89° C | 38% | 1012.3 hPa | 0 mm | - | - | - |
| 1777812903 | 24.44° C | 39% | 1012.4 hPa | 0 mm | - | - | - |
| 1777812303 | 24.44° C | 38% | 1012.4 hPa | 0 mm | - | - | - |
| 1777811703 | 24.44° C | 36% | 1012.5 hPa | 0 mm | - | - | - |
| 1777811103 | 24.44° C | 36% | 1012.7 hPa | 0 mm | - | - | - |
| 1777810503 | 24.44° C | 38% | 1012.6 hPa | 0 mm | - | - | - |
| 1777809903 | 24.44° C | 35% | 1012.7 hPa | 0 mm | - | - | - |
| 1777809303 | 24.44° C | 35% | 1012.7 hPa | 0 mm | - | - | - |
| 1777808704 | 24.44° C | 37% | 1012.9 hPa | 0 mm | - | - | - |
* Rain latest hour (hover to see other rain measurements)
** Current wind speed in m/s (hover to see current wind gust speed)